Zurück zum Katalog

STARLINK-5388

AktivKommunikationVLEO
NORAD 54844·PAYLOAD·🇺🇸 United States

Gestartet Dec 28, 2022 von Cape Canaveral Space Force Station

Loading…

Nächste Überflüge (nächste 24 Stunden)

TLE

AktuellSource: CelesTrak SupGP

Epoche: Sep 14, 2026, 22:05 UTC

1 54844C 22177AA  26257.92062500 -.00019891  00000+0 -72058-3 0  2571
2 54844  43.0010 147.0589 0001628 266.8615 225.7528 15.27582156    14

Verfolge STARLINK-5388 in Echtzeit mit AllMySat

Download on the App Store